[[{"header":{"parameterUnit":"m.s-1","parameterCategory":1,"la1":30.2992,"la2":30.254,"lo1":-89.0895,"lo2":-89.0443,"dy":0.0025,"dx":0.0025,"nx":19,"ny":19,"refTime":"2026-04-17T21:00:00:Z","depth":0,"parameterNumber":2,"parameterNumberName":"U-component_of_WINDS"},"data":[0,0,0,0.416,0.4163,0.4323,0.4324,0.4506,0.4508,0,0,0,0,0,0,0,0,0,0,0,0.4098,0.4099,0.416,0.4163,0.4323,0.4324,0.4506,0.4508,0,0,0,0,0,0,0,0,0,0,0,0.4098,0.4099,0.41,0.4164,0.4323,0.4324,0.4506,0.4393,0,0,0,0,0,0,0,0,0,0,0.4241,0.4171,0.4099,0.41,0.4165,0.4323,0.4324,0.4388,0.44,0.4424,0,0.4441,0,0.4477,0.4519,0.4519,0,0,0,0.4174,0.416,0.4216,0.41,0.4166,0.4323,0.4254,0.4395,0.4409,0.444,0.4444,0.4451,0.448,0.452,0.452,0.4618,0.4618,0,0,0.4165,0.412,0.4207,0.4224,0.4197,0.4249,0.4259,0.4404,0.4405,0.4444,0.4456,0.4483,0.4521,0.4522,0.4619,0.4618,0,0,0,0.4132,0.4113,0.4166,0.4216,0.4247,0.4253,0.4265,0.4399,0.442,0.4458,0.4485,0.4522,0.4523,0.4619,0.4618,0.457,0,0,0,0.4128,0.4094,0.4161,0.4135,0.4243,0.4325,0.4256,0.441,0.4428,0.4484,0.4522,0.4525,0.4619,0.4619,0.4572,0.4555,0,0,0,0.4093,0.409,0.4108,0.4132,0.42,0.4323,0.4353,0.4415,0.4444,0.4519,0.4525,0.4619,0.4619,0.4573,0.4558,0.4566,0,0,0,0.4042,0.4065,0.4107,0.4142,0.4198,0.4292,0.4353,0.4426,0.4485,0.4522,0.4619,0.4618,0.4574,0.4559,0.4568,0.4565,0.456,0,0,0.4045,0.4063,0.4088,0.413,0.4205,0.4271,0.434,0.4438,0.4488,0.4572,0.4575,0.4571,0.4558,0.4567,0.4548,0.4543,0,0,0,0.4073,0.409,0.412,0.4173,0.4248,0.431,0.4402,0.4438,0.4512,0.4522,0.4579,0.4572,0.4579,0.458,0.4576,0.4585,0.4617,0.4617,0.4617,0.4011,0.4072,0.4116,0.4196,0.4247,0.4341,0.4388,0.4453,0.4501,0.4513,0.4538,0.4519,0.4519,0.4516,0.4524,0.4543,0.4542,0.4542,0.4542,0.402,0.4053,0.4114,0.4179,0.4243,0.4298,0.4389,0.4421,0.4482,0.4506,0.4515,0.4535,0.4509,0.4519,0.4539,0.454,0.454,0.454,0.4541,0.3986,0.4012,0.4055,0.4137,0.4194,0.4274,0.4329,0.4386,0.4441,0.445,0.4482,0.4483,0.449,0.4461,0.4461,0.4461,0.4461,0.4461,0.4461,0.3932,0.3982,0.4021,0.41,0.4141,0.4203,0.4296,0.4338,0.44,0.4437,0.4438,0.4483,0.4495,0.4496,0.446,0.446,0.446,0.446,0.446,0.3917,0.3929,0.3988,0.4029,0.4127,0.4178,0.4251,0.4331,0.4374,0.4399,0.4443,0.4443,0.4466,0.4469,0.4471,0.443,0.443,0.443,0.443,0.3887,0.3904,0.3977,0.4038,0.4105,0.4175,0.424,0.4312,0.4389,0.442,0.4434,0.4441,0.4442,0.4465,0.4468,0.447,0.443,0.443,0.443,0.388,0.3906,0.395,0.4024,0.4105,0.4172,0.4234,0.4302,0.4392,0.4432,0.4444,0.4444,0.4456,0.4457,0.4496,0.4501,0.4506,0,0]},{"header":{"parameterUnit":"m.s-1","parameterCategory":1,"la1":30.2992,"la2":30.254,"lo1":-89.0895,"lo2":-89.0443,"dy":0.0025,"dx":0.0025,"nx":19,"ny":19,"refTime":"2026-04-17T21:00:00:Z","depth":0,"parameterNumber":3,"parameterNumberName":"V-component_of_WINDS"},"data":[0,0,0,4.4868,4.4866,4.4801,4.4801,4.4724,4.4723,0,0,0,0,0,0,0,0,0,0,0,4.4894,4.4893,4.4868,4.4866,4.4801,4.4801,4.4724,4.4723,0,0,0,0,0,0,0,0,0,0,0,4.4894,4.4893,4.4893,4.4866,4.4801,4.4801,4.4724,4.477,0,0,0,0,0,0,0,0,0,0,4.4832,4.4863,4.4893,4.4893,4.4866,4.4801,4.4801,4.4772,4.4767,4.4757,0,4.4752,0,4.4737,4.4719,4.4719,0,0,0,4.486,4.4868,4.4844,4.4893,4.4865,4.4802,4.4829,4.4769,4.4764,4.4751,4.4751,4.4748,4.4736,4.4718,4.4718,4.4687,4.4688,0,0,4.4864,4.4885,4.4848,4.4841,4.4855,4.4831,4.4827,4.4766,4.4767,4.4751,4.4746,4.4735,4.4718,4.4717,4.4687,4.4687,0,0,0,4.4878,4.4887,4.4865,4.4845,4.4833,4.4829,4.4825,4.4769,4.4761,4.4745,4.4734,4.4718,4.4717,4.4687,4.4687,4.4717,0,0,0,4.488,4.4896,4.4867,4.4879,4.4834,4.4801,4.483,4.4765,4.4757,4.4734,4.4718,4.4716,4.4687,4.4687,4.4715,4.4726,0,0,0,4.4895,4.4897,4.4891,4.4881,4.4854,4.4801,4.4789,4.4763,4.4751,4.4719,4.4716,4.4687,4.4687,4.4714,4.4724,4.4725,0,0,0,4.4917,4.4915,4.4892,4.4885,4.4855,4.4821,4.4789,4.4762,4.4738,4.4717,4.4687,4.4687,4.4714,4.4723,4.4724,4.473,4.4735,0,0,4.4926,4.4917,4.4911,4.4889,4.4865,4.4829,4.4809,4.4765,4.4741,4.4706,4.4705,4.4716,4.4724,4.4725,4.4753,4.4757,0,0,0,4.4921,4.4917,4.4907,4.4887,4.4856,4.483,4.4789,4.4772,4.4743,4.4728,4.4716,4.472,4.4719,4.4721,4.4724,4.4723,4.4689,4.4689,4.4689,4.4962,4.4935,4.4925,4.489,4.4871,4.483,4.4811,4.4782,4.4757,4.4755,4.4744,4.4764,4.4767,4.477,4.4768,4.4745,4.4745,4.4745,4.4745,4.4973,4.4964,4.4935,4.4915,4.4885,4.4866,4.4826,4.4809,4.4786,4.477,4.4768,4.4752,4.4775,4.4772,4.4747,4.4746,4.4746,4.4746,4.4746,4.4997,4.4988,4.4972,4.4942,4.4922,4.4885,4.4866,4.4839,4.4812,4.4811,4.4797,4.4796,4.4792,4.4806,4.4807,4.4807,4.4807,4.4807,4.4807,4.5029,4.5009,4.4998,4.4968,4.4952,4.4929,4.4888,4.4871,4.4845,4.4827,4.4827,4.4802,4.4783,4.4779,4.4808,4.4807,4.4807,4.4807,4.4807,4.5049,4.5041,4.5024,4.5009,4.4972,4.4954,4.4921,4.489,4.4871,4.4863,4.4839,4.483,4.4817,4.4814,4.481,4.4846,4.4846,4.4846,4.4846,4.507,4.5062,4.504,4.5018,4.4994,4.4963,4.4943,4.4911,4.4877,4.4864,4.4855,4.4847,4.4846,4.4834,4.4831,4.4827,4.4866,4.4866,4.4866,4.5081,4.5071,4.506,4.503,4.4999,4.4973,4.4953,4.4928,4.4886,4.4866,4.4853,4.4852,4.484,4.4838,4.4816,4.4812,4.4804,0,0]}]]